Weather History for KNBC - July, 2012

Change the Weather History Date:

Friday, July 6, 2012

  Actual Average Record
Temperature  
Mean Temperature 83 °F -  
Max Temperature 95 °F 90 °F 99 °F (1990)
Min Temperature 73 °F 71 °F 59 °F (1933)
Cooling Degree Days 18    
Growing Degree Days 33 (Base 50)    
Moisture  
Dew Point 71 °F    
Average Humidity 67    
Maximum Humidity 82    
Minimum Humidity 49    
Precipitation  
Precipitation 0.00 in - - ()
Sea Level Pressure  
Sea Level Pressure 29.99 in    
Wind  
Wind Speed 5 mph (WSW)    
Max Wind Speed 14 mph    
Max Gust Speed 20 mph    
Visibility 10 miles    
Events Thunderstorm    
Averages and records for this station are not official NWS values.
T = Trace of Precipitation, MM = Missing Value Source: NWS Daily Summary

Daily Weather History Graph

Daily Weather History Graph

Search for Another Location

Airport or City:

Trip Planner

Search our weather history database for the weather conditions in past years. The results will help you decide how hot, cold, wet, or windy it might be!

Date:

Astronomy

Jul. 06, 2012 Rise Set
Actual Time 6:21 AM EDT 8:33 PM EDT
Civil Twilight 5:53 AM EDT 9:01 PM EDT
Nautical Twilight 5:19 AM EDT 9:36 PM EDT
Astronomical Twilight 4:41 AM EDT 10:13 PM EDT
Moon 10:37 PM EDT (7/6) 9:27 AM EDT (7/6)
Length of Visible Light 15h 08m
Length of Day
14h 11m
Waning Gibbous, 89% of the Moon is Illuminated
Jul 6
Waning Gibbous
Jul 10
Last Quarter
Jul 19
New
Jul 26
First Quarter
Aug 1
Full

Hourly Weather History & Observations

Time (EDT) Temp. Heat Index Dew Point Humidity Pressure Visibility Wind Dir Wind Speed Gust Speed Precip Events Conditions
12:56 AM 82.0 °F 89.4 °F 75.9 °F 82% 29.96 in 10.0 mi SSW 4.6 mph - N/A   Clear
1:56 AM 81.0 °F 86.7 °F 75.0 °F 82% 29.96 in 10.0 mi West 6.9 mph - N/A   Partly Cloudy
2:56 AM 78.1 °F - 72.0 °F 81% 29.95 in 10.0 mi NW 4.6 mph - N/A   Clear
3:56 AM 75.9 °F - 70.0 °F 82% 29.95 in 10.0 mi WSW 5.8 mph - N/A   Clear
4:56 AM 73.9 °F - 68.0 °F 82% 29.95 in 10.0 mi SW 4.6 mph - N/A   Clear
5:56 AM 73.9 °F - 68.0 °F 82% 29.96 in 10.0 mi Calm Calm - N/A   Clear
6:56 AM 73.9 °F - 68.0 °F 82% 29.98 in 10.0 mi Calm Calm - N/A   Partly Cloudy
7:56 AM 78.1 °F - 69.1 °F 74% 29.99 in 10.0 mi North 3.5 mph - N/A   Partly Cloudy
8:56 AM 82.0 °F 85.9 °F 70.0 °F 67% 30.02 in 10.0 mi WNW 5.8 mph - N/A   Partly Cloudy
9:56 AM 84.0 °F 88.4 °F 70.0 °F 63% 30.02 in 10.0 mi NNW 8.1 mph - N/A   Partly Cloudy
10:56 AM 87.1 °F 92.0 °F 70.0 °F 57% 30.01 in 10.0 mi West 6.9 mph - N/A   Partly Cloudy
11:56 AM 89.1 °F 94.1 °F 70.0 °F 53% 30.01 in 10.0 mi NNW 4.6 mph - N/A   Partly Cloudy
12:56 PM 91.0 °F 98.2 °F 72.0 °F 53% 30.01 in 10.0 mi SE 3.5 mph - N/A   Scattered Clouds
1:56 PM 93.9 °F 102.1 °F 72.0 °F 49% 29.99 in 10.0 mi Variable 3.5 mph - N/A   Scattered Clouds
2:56 PM 91.0 °F 101.6 °F 75.0 °F 59% 29.96 in 10.0 mi South 5.8 mph - N/A   Mostly Cloudy
3:56 PM 90.0 °F 100.2 °F 75.0 °F 61% 29.98 in 10.0 mi SW 13.8 mph 19.6 mph N/A   Scattered Clouds
4:22 PM 91.4 °F 96.8 °F 69.8 °F 49% 29.98 in 10.0 mi SSW 9.2 mph 18.4 mph N/A   Partly Cloudy
4:32 PM 91.4 °F 96.8 °F 69.8 °F 49% 29.99 in 10.0 mi SW 11.5 mph 18.4 mph N/A Thunderstorm Clear
4:42 PM 89.6 °F 93.4 °F 68.0 °F 49% 29.99 in 10.0 mi SW 9.2 mph - N/A   Clear
4:56 PM 89.1 °F 93.7 °F 69.1 °F 52% 29.99 in 10.0 mi SSW 9.2 mph 17.3 mph N/A   Clear
5:56 PM 84.9 °F 89.4 °F 70.0 °F 61% 29.97 in 10.0 mi SW 13.8 mph 19.6 mph N/A   Clear
6:56 PM 84.0 °F 88.4 °F 70.0 °F 63% 29.96 in 10.0 mi SW 6.9 mph - N/A   Clear
7:56 PM 82.9 °F 87.5 °F 71.1 °F 67% 29.97 in 10.0 mi Calm Calm - N/A   Clear
8:56 PM 80.1 °F 83.6 °F 71.1 °F 74% 30.00 in 10.0 mi West 5.8 mph - N/A   Clear
9:56 PM 79.0 °F - 72.0 °F 79% 30.00 in 10.0 mi Calm Calm - N/A   Clear
10:56 PM 77.0 °F - 71.1 °F 82% 30.02 in 10.0 mi WSW 3.5 mph - N/A   Clear
11:56 PM 79.0 °F - 71.1 °F 77% 30.04 in 10.0 mi SSW 4.6 mph - N/A   Clear